Location: Brno
(49.2000°N, 16.6330°E)
Time: 10:15:19
(UTC+01:00)

BREEZE M DEB (TANK) - Visible Passes

Search period start: 06 February 2016 00:00
Search period end: 16 February 2016 00:00
Orbit: 302 x 12042 km, 49.5° (Epoch: 04 February)

Date Brightness Start Highest point End Pass type
(mag) Time Alt. Az. Time Alt. Az. Time Alt. Az.
06 Feb 8.0 02:40:18 10° S 03:53:33 49° SE 04:14:47 10° ENE visible
07 Feb 8.2 01:58:17 10° S 03:08:47 42° SE 03:31:57 10° ENE visible
07 Feb 6.5 06:25:38 10° WSW 07:24:13 85° SSE 07:35:10 10° ENE visible
08 Feb 8.4 01:18:22 10° SSE 02:24:08 36° ESE 02:48:44 10° ENE visible
08 Feb 6.8 05:33:58 10° SW 06:40:21 81° SSE 06:53:03 10° ENE visible
09 Feb 8.5 00:40:57 10° SSE 01:39:46 30° ESE 02:04:56 10° ENE visible
09 Feb 7.0 04:43:32 10° SW 05:56:10 75° SSE 06:10:50 10° ENE visible
10 Feb 8.6 00:06:41 10° SE 00:55:49 23° ESE 01:20:12 10° ENE visible
10 Feb 7.3 03:54:42 10° SSW 05:11:39 69° SSE 05:28:31 10° ENE visible
10 Feb 8.7 23:36:49 10° SE 00:12:26 17° ESE 00:33:36 10° ENE visible
11 Feb 7.6 03:07:34 10° SSW 04:26:49 63° SE 04:46:04 10° ENE visible
11 Feb 8.8 23:16:15 10° ESE 23:29:42 11° E 23:40:31 10° E visible
12 Feb 7.8 02:22:11 10° SSW 03:41:46 57° SE 04:03:26 10° ENE visible
13 Feb 8.0 01:38:34 10° S 02:56:35 50° SE 03:20:36 10° ENE visible
13 Feb 6.4 06:14:10 10° WSW 07:12:41 89° S 07:23:29 10° E visible
14 Feb 8.2 00:56:49 10° S 02:11:26 44° SE 02:37:28 10° ENE visible
14 Feb 6.7 05:21:18 10° WSW 06:28:37 86° SSE 06:41:11 10° ENE visible
15 Feb 8.4 00:17:09 10° SSE 01:26:31 37° ESE 01:53:57 10° ENE visible
15 Feb 6.9 04:29:33 10° SW 05:44:12 81° SSE 05:58:49 10° ENE visible
